TimeCDT,TemperatureF,Dew PointF,Humidity,Sea Level PressureIn,VisibilityMPH,Wind Direction,Wind SpeedMPH,Gust SpeedMPH,PrecipitationIn,Events,Conditions,WindDirDegrees,DateUTC
1:53 AM,73.0,64.9,76,29.88,10.0,South,16.1,26.5,N/A,,Clear,180,2012-10-23 06:53:00
2:53 AM,72.0,64.9,78,29.89,10.0,South,16.1,25.3,N/A,,Partly Cloudy,180,2012-10-23 07:53:00
3:23 AM,71.6,64.4,78,29.92,10.0,South,16.1,-,N/A,,Mostly Cloudy,180,2012-10-23 08:23:00
3:53 AM,72.0,64.9,78,29.89,10.0,South,16.1,-,N/A,,Mostly Cloudy,180,2012-10-23 08:53:00
4:53 AM,71.1,64.9,81,29.89,10.0,South,11.5,-,N/A,,Mostly Cloudy,180,2012-10-23 09:53:00
5:53 AM,71.1,64.9,81,29.90,10.0,South,9.2,-,N/A,,Mostly Cloudy,170,2012-10-23 10:53:00
6:53 AM,72.0,66.0,81,29.91,10.0,South,12.7,-,N/A,,Overcast,170,2012-10-23 11:53:00
7:41 AM,71.6,66.2,83,29.94,10.0,SSE,11.5,-,N/A,,Mostly Cloudy,160,2012-10-23 12:41:00
7:53 AM,71.1,66.0,84,29.92,10.0,SSE,13.8,-,N/A,,Mostly Cloudy,160,2012-10-23 12:53:00
8:53 AM,73.0,66.9,81,29.93,10.0,South,13.8,-,N/A,,Mostly Cloudy,170,2012-10-23 13:53:00
9:29 AM,75.2,66.2,73,29.96,10.0,South,15.0,-,N/A,,Mostly Cloudy,170,2012-10-23 14:29:00
10:21 AM,78.8,66.2,65,29.96,10.0,South,17.3,28.8,N/A,,Mostly Cloudy,190,2012-10-23 15:21:00
10:53 AM,80.1,66.9,64,29.94,10.0,South,17.3,20.7,N/A,,Mostly Cloudy,180,2012-10-23 15:53:00
11:53 AM,82.4,66.2,58,29.94,10.0,South,15.0,24.2,N/A,,Mostly Cloudy,180,2012-10-23 16:53:00
12:53 PM,82.9,66.0,56,29.91,10.0,SSW,20.7,25.3,N/A,,Mostly Cloudy,200,2012-10-23 17:53:00
1:53 PM,82.9,66.0,56,29.89,10.0,SSW,16.1,25.3,N/A,,Mostly Cloudy,200,2012-10-23 18:53:00
2:53 PM,84.9,66.0,53,29.87,10.0,South,15.0,-,N/A,,Mostly Cloudy,190,2012-10-23 19:53:00
3:53 PM,84.0,66.0,55,29.85,10.0,South,16.1,-,N/A,,Mostly Cloudy,190,2012-10-23 20:53:00
4:53 PM,84.0,64.9,53,29.85,10.0,South,16.1,21.9,N/A,,Mostly Cloudy,170,2012-10-23 21:53:00
5:53 PM,82.9,64.9,54,29.85,10.0,South,13.8,-,N/A,,Mostly Cloudy,170,2012-10-23 22:53:00
6:53 PM,80.1,64.9,60,29.86,10.0,South,11.5,-,N/A,,Partly Cloudy,170,2012-10-23 23:53:00
7:53 PM,79.0,64.9,62,29.87,10.0,South,11.5,-,N/A,,Clear,170,2012-10-24 00:53:00
8:53 PM,78.1,64.9,64,29.88,10.0,South,15.0,-,N/A,,Clear,170,2012-10-24 01:53:00
9:53 PM,75.9,64.9,69,29.89,10.0,South,16.1,-,N/A,,Clear,170,2012-10-24 02:53:00
10:53 PM,73.9,64.9,73,29.90,10.0,South,8.1,-,N/A,,Clear,190,2012-10-24 03:53:00
11:53 PM,73.9,64.9,73,29.90,10.0,South,9.2,-,N/A,,Clear,180,2012-10-24 04:53:00